Regional Weather Roundup
Issued by NWS

Home | Current Version | Previous Version | Graphics & Text | Print | Product List | Glossary On
Versions: 1 2 3 4 5 6 7 8 9 10 11 12 13 14 15 16 17 18 19 20 21 22 23 24 25 26 27 28 29 30 31 32 33 34 35 36 37 38 39 40 41 42 43 44 45 46 47 48 49 50
000
ASUS43 KIND 301059
RWRIN

WEATHER ROUNDUP FOR INDIANA
NATIONAL WEATHER SERVICE INDIANAPOLIS IN
700 AM EDT THU MAR 30 2017

NOTE: "FAIR" INDICATES FEW OR NO CLOUDS BELOW 12,000 FEET WITH NO
SIGNIFICANT WEATHER AND/OR OBSTRUCTIONS TO VISIBILITY.

* - STATION DOES NOT REPORT WEATHER SUCH AS PRECIPITATION OR FOG.

+ - STATION NOT QUALITY CONTROLLED BY THE NATIONAL WEATHER SERVICE.
    USE DATA WITH CAUTION...ESPECIALLY DEWPOINT AND RELATIVE
    HUMIDITY OBSERVATIONS.

INZ001>003-010>013-019-020-301200-
NORTHWEST INDIANA

CITY           SKY/WX    TMP DP  RH WIND       PRES   REMARKS
KNOX *+        CLOUDY    41  28  60 E16       29.87F
MONTICELLO +   LGT RAIN  44  39  82 E9        29.82R

$$

LMZ046-743>745-301200-
SOUTHERN LAKE MICHIGAN

STATION/POSITION TIME  TEMP    WIND        PRES    WAVE
                       AIR SEA DIR/SP/G            HT
                 (UTC) (F)     (DEG/KT/KT) (MB)    (FT)
BURNS HARBOR     1040   43     100/ 15/ 23 1010.8F
MICHIGAN CITY    1030   41      90/ 20/ 28   N/A

$$

INZ004-005-014>016-021>024-301200-
NORTH CENTRAL INDIANA

CITY           SKY/WX    TMP DP  RH WIND       PRES   REMARKS
ELKHART        CLOUDY    41  37  87 E14G23    29.92
GOSHEN         CLOUDY    42  35  76 E17G28    29.89F
SOUTH BEND     CLOUDY    40  32  73 E17G29    29.89F

$$

INZ006>009-017-018-025>027-301200-
NORTHEAST INDIANA

CITY           SKY/WX    TMP DP  RH WIND       PRES   REMARKS
ANGOLA *+      CLOUDY    39  30  70 E16       29.94F
FORT WAYNE     TSTM      42  38  85 E14       29.87S
KENDALLVILLE + LGT RAIN  39  37  91 E16G24    29.91F

$$

INZ028-029-035-036-043>045-051>053-301200-
WEST CENTRAL INDIANA

CITY           SKY/WX    TMP DP  RH WIND       PRES   REMARKS
CRAWFORDSVL +  CLOUDY    51  46  85 SE6       29.78R THUNDER
GREENCASTLE +  CLOUDY    52  45  76 E8        29.76S
LAFAYETTE      CLOUDY    48  44  86 NE7       29.82R
TERRE HAUTE    TSTM      54  49  83 E3        29.78R

$$

INZ030>032-037>040-046>048-054>057-064-065-301200-
CENTRAL INDIANA

CITY           SKY/WX    TMP DP  RH WIND       PRES   REMARKS
COLUMBUS       CLEAR     50  48  93 E3        29.79
GREENWOOD *+   MOCLDY    53  46  79 SE8       29.79F
INDIANAPOLIS   CLOUDY    53  45  74 E9        29.78F
-EAGLE CREEK   MOCLDY    53  44  71 SE8       29.78F
KOKOMO +       CLOUDY    45  40  82 E13       29.82F
SHELBYVILLE    PTCLDY    53  45  74 E8        29.79F

$$

INZ033-034-041-042-049-050-058-059-301200-
EAST CENTRAL INDIANA

CITY           SKY/WX    TMP DP  RH WIND       PRES   REMARKS
MUNCIE         CLOUDY    48  40  73 SE9       29.83S
RICHMOND +     CLOUDY    46  37  71 SE13      29.84S

$$

INZ060-061-067>069-081>083-085>088-301200-
SOUTHWEST INDIANA

CITY           SKY/WX    TMP DP  RH WIND       PRES   REMARKS
EVANSVILLE     CLOUDY    62  53  72 SE5       29.73S
HUNTINGBURG *+ CLOUDY    61  53  75 SE9       29.74S

$$

INZ062-063-066-070>080-084-089>092-301200-
SOUTH CENTRAL AND SOUTHEAST INDIANA

CITY           SKY/WX    TMP DP  RH WIND       PRES   REMARKS
BLOOMINGTON    CLOUDY    54  46  74 SE8       29.75F
MADISON *+     CLOUDY    52  45  76 E6        29.83S

$$




USA.gov is the U.S. government's official web portal to all federal, state and local government web resources and services.